CST,Max TemperatureF,Mean TemperatureF,Min TemperatureF,Max Dew PointF,MeanDew PointF,Min DewpointF,Max Humidity, Mean Humidity, Min Humidity, Max Sea Level PressureIn, Mean Sea Level PressureIn, Min Sea Level PressureIn, Max VisibilityMiles, Mean VisibilityMiles, Min VisibilityMiles, Max Wind SpeedMPH, Mean Wind SpeedMPH, Max Gust SpeedMPH,PrecipitationIn, CloudCover, Events, WindDirDegrees
2013-12-1,50,36,23,34,30,22,96,77,48,30.13,30.06,29.95,10,9,5,6,1,,0.00,1,,16
2013-12-2,47,39,31,40,35,30,97,86,68,29.95,29.80,29.69,7,4,2,10,5,,0.00,6,Rain,106
2013-12-3,52,46,39,51,45,39,100,96,93,29.71,29.68,29.63,4,2,0,15,7,16,0.00,6,Fog,166
2013-12-4,59,50,39,57,47,32,100,92,72,29.82,29.66,29.49,10,4,0,17,5,25,0.00,7,Fog-Rain,169
2013-12-5,37,30,23,32,18,12,82,68,60,30.30,30.13,29.83,10,10,10,12,8,21,0.00,6,,299
2013-12-6,23,18,13,13,10,7,78,65,56,30.61,30.42,30.30,10,10,10,10,7,16,0.00,6,,329
2013-12-7,25,16,7,9,6,2,83,68,39,30.73,30.64,30.55,10,10,10,9,4,,0.00,0,,357
2013-12-8,27,22,16,26,20,10,96,83,67,30.53,30.21,30.02,10,7,1,16,9,21,0.00,7,Rain-Snow,97
2013-12-9,27,20,12,25,14,6,91,72,55,30.30,30.22,30.03,10,10,7,12,7,21,0.00,4,Snow,283
2013-12-10,30,16,3,15,9,0,85,66,47,30.34,30.25,30.16,10,10,10,14,4,25,0.00,1,,249
2013-12-11,27,16,5,19,9,-2,86,68,43,30.67,30.46,30.28,10,10,5,14,5,20,0.00,2,Snow,301
2013-12-12,34,18,1,15,7,-4,79,62,40,30.66,30.44,30.26,10,10,10,13,3,17,0.00,0,,204
2013-12-13,41,28,16,32,22,12,100,77,43,30.25,30.13,30.03,10,7,1,12,6,16,0.00,4,Snow,170
2013-12-14,34,30,24,33,29,21,99,92,81,30.09,29.97,29.89,10,5,1,14,8,18,0.00,8,Snow,6
2013-12-15,25,20,15,20,15,11,89,79,63,30.16,30.12,30.09,10,8,2,10,6,21,0.01,7,Snow,286
2013-12-16,24,20,17,24,18,14,96,88,80,30.14,30.09,30.03,10,5,0,12,6,,0.00,8,Fog-Snow,62
2013-12-17,36,30,23,30,23,14,96,80,58,30.24,30.15,30.09,10,6,0,12,6,21,0.00,4,Snow,272
2013-12-18,40,26,12,32,20,7,82,70,56,30.25,30.08,29.90,10,10,10,22,7,28,0.12,0,,190
2013-12-19,46,41,37,45,38,33,94,86,78,29.93,29.86,29.77,10,9,5,13,10,17,0.07,4,Rain,183
2013-12-20,60,46,32,56,43,32,99,95,87,29.88,29.77,29.68,10,4,0,9,6,20,0.15,8,Fog-Rain,246
2013-12-21,34,32,31,34,32,30,99,97,94,29.88,29.75,29.57,7,4,2,8,5,,0.00,8,Rain,354
2013-12-22,34,28,23,34,30,20,99,93,84,30.24,29.90,29.59,10,7,2,12,4,21,0.01,8,Rain,286
2013-12-23,22,14,7,18,10,-3,86,75,62,30.57,30.45,30.26,10,10,7,12,8,23,0.01,4,Snow,287
2013-12-24,22,12,3,13,4,-4,72,66,62,30.64,30.53,30.38,10,10,10,18,6,22,0.00,2,,210
2013-12-25,32,28,23,29,23,13,88,79,65,30.37,30.26,30.20,10,9,3,17,9,21,0.00,8,Snow,226
2013-12-26,42,31,20,30,25,18,93,76,55,30.37,30.28,30.21,10,10,7,13,5,18,0.00,3,,210
2013-12-27,50,38,26,32,29,22,88,73,46,30.35,30.27,30.19,10,10,10,9,4,,0.00,0,,206
2013-12-28,56,42,28,36,32,26,92,70,43,30.19,30.07,29.90,10,10,10,14,6,17,0.00,0,,193
2013-12-29,37,24,11,32,23,6,95,84,74,30.28,30.03,29.84,10,8,2,15,8,22,0.00,6,Snow,284
2013-12-30,21,12,3,9,2,-2,79,64,49,30.39,30.30,30.21,10,10,4,10,3,,0.00,4,Snow,288
2013-12-31,32,24,15,23,15,9,87,71,52,30.41,30.28,30.21,10,10,10,12,3,18,0.00,2,,340